Location: Czekanka
(50.4925°N, 19.2643°E)
Time: 02:25:58
(UTC+00:00)

CZ-2C R/B - Pass Details

Date: 22 September 2024
Orbit: 703 x 903 km, 98.2° (Epoch: 09 October)

Event Time Altitude Azimuth Distance (km) Brightness Sun altitude
Rises 02:50:39 0° 4° (N) 3,534 6.8 -16.2°
Reaches altitude 10° 02:54:16 10° 341° (NNW) 2,595 5.7 -15.7°
Maximum altitude 02:57:08 14° 311° (NW) 2,300 5.2 -15.2°
Enters shadow 02:58:51 13° 292° (WNW) 2,404 5.1 -15.0°
